Weather History for KCLK - May, 2014

Change the Weather History Date:

Thursday, May 29, 2014

  Actual Average (KCSM) Record (KCSM)
Temperature  
Mean Temperature 74 °F -  
Max Temperature 87 °F 83 °F 102 °F (1998)
Min Temperature 60 °F 59 °F 55 °F (1997)
Cooling Degree Days 8    
Growing Degree Days 24 (Base 50)    
Moisture  
Dew Point 56 °F    
Average Humidity 57    
Maximum Humidity 94    
Minimum Humidity 25    
Precipitation  
Precipitation 0.00 in - - ()
Sea Level Pressure  
Sea Level Pressure 29.96 in    
Wind  
Wind Speed 4 mph (ENE)    
Max Wind Speed 13 mph    
Max Gust Speed 17 mph    
Visibility 10 miles    
Events      
Averages and records for this station are not official NWS values.
T = Trace of Precipitation, MM = Missing Value Source: NWS Daily Summary

Daily Weather History Graph

Daily Weather History Graph

Search for Another Location

Airport or City:

Trip Planner

Search our weather history database for the weather conditions in past years. The results will help you decide how hot, cold, wet, or windy it might be!

Date:

Astronomy

May. 29, 2014 Rise Set
Actual Time 6:22 AM CDT 8:44 PM CDT
Civil Twilight 5:53 AM CDT 9:13 PM CDT
Nautical Twilight 5:17 AM CDT 9:49 PM CDT
Astronomical Twilight 4:38 AM CDT 10:28 PM CDT
Moon 7:15 AM CDT (5/29) 9:37 PM CDT (5/29)
Length of Visible Light 15h 19m
Length of Day
14h 21m
New Moon, 1% of the Moon is Illuminated
May 29
New Moon
Jun 5
First Quarter
Jun 12
Full
Jun 19
Last Quarter
Jun 27
New

Hourly Weather History & Observations

Time (CDT) Temp. Heat Index Dew Point Humidity Pressure Visibility Wind Dir Wind Speed Gust Speed Precip Events Conditions
12:15 AM 69.8 °F - 60.8 °F 73% 29.99 in 10.0 mi SE 3.5 mph - N/A   Clear
12:35 AM 69.8 °F - 60.8 °F 73% 29.99 in 10.0 mi ESE 3.5 mph - N/A   Clear
12:55 AM 68.0 °F - 60.8 °F 78% 29.99 in 10.0 mi Calm Calm - N/A   Clear
1:15 AM 68.0 °F - 60.8 °F 78% 29.99 in 10.0 mi Calm Calm - N/A   Clear
1:35 AM 68.0 °F - 60.8 °F 78% 29.99 in 10.0 mi Calm Calm - N/A   Clear
1:55 AM 64.4 °F - 60.8 °F 88% 29.99 in 10.0 mi Calm Calm - N/A   Clear
2:15 AM 66.2 °F - 60.8 °F 83% 29.99 in 10.0 mi Calm Calm - N/A   Clear
2:35 AM 66.2 °F - 60.8 °F 83% 29.98 in 10.0 mi Calm Calm - N/A   Clear
2:55 AM 66.2 °F - 60.8 °F 83% 29.97 in 10.0 mi Calm Calm - N/A   Clear
3:15 AM 64.4 °F - 59.0 °F 83% 29.98 in 10.0 mi North 3.5 mph - N/A   Clear
3:35 AM 62.6 °F - 59.0 °F 88% 29.98 in 10.0 mi Calm Calm - N/A   Scattered Clouds
4:15 AM 62.6 °F - 59.0 °F 88% 29.97 in 10.0 mi Calm Calm - N/A   Mostly Cloudy
4:35 AM 62.6 °F - 59.0 °F 88% 29.98 in 10.0 mi Calm Calm - N/A   Mostly Cloudy
4:55 AM 62.6 °F - 59.0 °F 88% 29.98 in 10.0 mi Calm Calm - N/A   Mostly Cloudy
5:15 AM 60.8 °F - 59.0 °F 94% 29.98 in 7.0 mi NNW 4.6 mph - N/A   Scattered Clouds
5:35 AM 60.8 °F - 59.0 °F 94% 29.99 in 7.0 mi North 3.5 mph - N/A   Mostly Cloudy
5:55 AM 60.8 °F - 59.0 °F 94% 29.99 in 7.0 mi North 3.5 mph - N/A   Scattered Clouds
6:15 AM 60.8 °F - 59.0 °F 94% 29.99 in 7.0 mi NE 3.5 mph - N/A   Scattered Clouds
6:35 AM 60.8 °F - 59.0 °F 94% 29.99 in 7.0 mi Calm Calm - N/A   Scattered Clouds
6:55 AM 62.6 °F - 59.0 °F 88% 29.99 in 7.0 mi Calm Calm - N/A   Clear
7:15 AM 62.6 °F - 59.0 °F 88% 29.99 in 7.0 mi Calm Calm - N/A   Clear
7:35 AM 62.6 °F - 59.0 °F 88% 29.99 in 5.0 mi Calm Calm - N/A   Clear
7:55 AM 62.6 °F - 60.8 °F 94% 30.00 in 5.0 mi Calm Calm - N/A   Clear
8:15 AM 64.4 °F - 60.8 °F 88% 30.00 in 7.0 mi Calm Calm - N/A   Clear
8:35 AM 68.0 °F - 60.8 °F 78% 30.00 in 10.0 mi Calm Calm - N/A   Clear
8:55 AM 69.8 °F - 60.8 °F 73% 30.00 in 10.0 mi Calm Calm - N/A   Clear
9:15 AM 71.6 °F - 62.6 °F 73% 30.00 in 10.0 mi Calm Calm - N/A   Clear
9:35 AM 73.4 °F - 62.6 °F 69% 30.00 in 10.0 mi NW 3.5 mph - N/A   Clear
9:55 AM 77.0 °F - 60.8 °F 57% 30.00 in 10.0 mi NNW 3.5 mph - N/A   Clear
10:15 AM 78.8 °F - 55.4 °F 44% 30.00 in 10.0 mi NNW 4.6 mph - N/A   Clear
10:35 AM 80.6 °F 80.8 °F 57.2 °F 45% 29.99 in 10.0 mi NE 4.6 mph - N/A   Clear
10:55 AM 82.4 °F - 51.8 °F 35% 29.99 in 10.0 mi East 10.4 mph - N/A   Clear
11:15 AM 82.4 °F - 50.0 °F 32% 29.99 in 10.0 mi East 8.1 mph - N/A   Clear
11:35 AM 82.4 °F 81.4 °F 53.6 °F 37% 29.99 in 10.0 mi ENE 11.5 mph - N/A   Clear
11:55 AM 82.4 °F - 51.8 °F 35% 30.00 in 10.0 mi East 5.8 mph - N/A   Clear
12:15 PM 84.2 °F 82.8 °F 53.6 °F 35% 29.99 in 10.0 mi East 8.1 mph - N/A   Clear
12:35 PM 82.4 °F 81.4 °F 53.6 °F 37% 29.99 in 10.0 mi East 9.2 mph - N/A   Scattered Clouds
1:15 PM 84.2 °F - 51.8 °F 33% 29.98 in 10.0 mi ENE 8.1 mph - N/A   Clear
1:35 PM 86.0 °F - 51.8 °F 31% 29.98 in 10.0 mi NE 9.2 mph 16.1 mph N/A   Clear
1:55 PM 86.0 °F - 51.8 °F 31% 29.98 in 10.0 mi East 5.8 mph - N/A   Scattered Clouds
2:15 PM 86.0 °F - 50.0 °F 29% 29.97 in 10.0 mi East 10.4 mph - N/A   Scattered Clouds
2:35 PM 86.0 °F - 50.0 °F 29% 29.97 in 10.0 mi ENE 10.4 mph - N/A   Mostly Cloudy
2:55 PM 86.0 °F - 50.0 °F 29% 29.96 in 10.0 mi NE 8.1 mph - N/A   Scattered Clouds
3:15 PM 87.8 °F - 51.8 °F 29% 29.95 in 10.0 mi East 6.9 mph 16.1 mph N/A   Scattered Clouds
3:35 PM 87.8 °F - 50.0 °F 27% 29.94 in 10.0 mi ENE 9.2 mph - N/A   Scattered Clouds
3:55 PM 86.0 °F - 50.0 °F 29% 29.93 in 10.0 mi NE 8.1 mph - N/A   Scattered Clouds
4:15 PM 87.8 °F - 50.0 °F 27% 29.93 in 10.0 mi ENE 5.8 mph - N/A   Scattered Clouds
4:35 PM 87.8 °F - 48.2 °F 25% 29.92 in 10.0 mi NE 9.2 mph - N/A   Mostly Cloudy
4:55 PM 87.8 °F - 50.0 °F 27% 29.92 in 10.0 mi East 12.7 mph 17.3 mph N/A   Mostly Cloudy
5:15 PM 87.8 °F - 48.2 °F 25% 29.91 in 10.0 mi NE 11.5 mph - N/A   Scattered Clouds
5:35 PM 87.8 °F - 50.0 °F 27% 29.91 in 10.0 mi ENE 11.5 mph - N/A   Clear
5:55 PM 87.8 °F - 48.2 °F 25% 29.90 in 10.0 mi East 5.8 mph - N/A   Clear
6:15 PM 87.8 °F - 48.2 °F 25% 29.90 in 10.0 mi NE 6.9 mph - N/A   Clear
6:35 PM 87.8 °F - 48.2 °F 25% 29.90 in 10.0 mi ENE 6.9 mph - N/A   Clear
6:55 PM 87.8 °F - 50.0 °F 27% 29.89 in 10.0 mi East 5.8 mph - N/A   Clear
7:15 PM 86.0 °F - 50.0 °F 29% 29.89 in 10.0 mi East 8.1 mph - N/A   Clear
7:35 PM 86.0 °F - 51.8 °F 31% 29.89 in 10.0 mi ENE 9.2 mph - N/A   Clear
7:55 PM 84.2 °F - 51.8 °F 33% 29.90 in 10.0 mi East 8.1 mph - N/A   Clear
8:15 PM 82.4 °F 81.4 °F 53.6 °F 37% 29.90 in 10.0 mi ENE 4.6 mph - N/A   Clear
8:55 PM 78.8 °F - 55.4 °F 44% 29.91 in 10.0 mi ENE 3.5 mph - N/A   Clear
9:15 PM 78.8 °F - 53.6 °F 42% 29.92 in 10.0 mi East 3.5 mph - N/A   Clear
9:35 PM 77.0 °F - 57.2 °F 50% 29.93 in 10.0 mi ESE 4.6 mph - N/A   Clear
9:55 PM 75.2 °F - 59.0 °F 57% 29.93 in 10.0 mi East 5.8 mph - N/A   Clear
10:15 PM 73.4 °F - 59.0 °F 61% 29.94 in 10.0 mi ESE 5.8 mph - N/A   Clear
10:35 PM 73.4 °F - 60.8 °F 65% 29.95 in 10.0 mi ESE 5.8 mph - N/A   Clear
10:55 PM 73.4 °F - 60.8 °F 65% 29.96 in 10.0 mi East 5.8 mph - N/A   Clear
11:15 PM 73.4 °F - 60.8 °F 65% 29.96 in 10.0 mi East 4.6 mph - N/A   Clear
11:35 PM 73.4 °F - 59.0 °F 61% 29.96 in 10.0 mi ESE 4.6 mph - N/A   Clear
11:55 PM 71.6 °F - 60.8 °F 69% 29.96 in 10.0 mi East 3.5 mph - N/A   Clear